Regional Weather Roundup
Issued by NWS Grand Forks, ND

Home | Current Version | Previous Version | Graphics & Text | Print | Product List | Glossary On
Versions: 1 2 3 4 5 6 7 8 9 10 11 12 13 14 15 16 17 18 19 20 21 22 23 24 25 26 27 28 29 30 31 32 33 34 35 36 37 38 39 40 41 42 43 44 45 46 47 48 49 50
000
ASUS43 KFGF 110410
RWRFGF
PRAIRIE TO PINES  WEATHER ROUNDUP
NATIONAL WEATHER SERVICE EASTERN NORTH DAKOTA/GRAND FORKS ND
1100 PM CDT THU JUL 10 2014

 **SATELLITE DATA USED TO AUGMENT SKY COVER AT AUTOMATED STATIONS**
 *****  WEATHER ACROSS EASTERN NORTH DAKOTA  *****

CITY           SKY/WX    TMP DP  RH WIND       PRES   REMARKS
GRAND FORKS    PTCLDY    70  64  81 S8        29.81F
GRAND FRKS AFB PTCLDY    69  68  99 S9        29.82S
GRAND FRKS NWS   N/A     68 N/A N/A SE12        N/A
DEVILS LAKE    PTCLDY    70  61  73 S9        29.79S
FARGO          CLOUDY    71  68  90 SE10      29.84R
WAHPETON ARPT  CLOUDY    72  64  78 SE9       29.85S
$$

 ***** WEATHER ACROSS CENTRAL AND WESTERN NORTH DAKOTA  *****

CITY           SKY/WX    TMP DP  RH WIND       PRES   REMARKS
BISMARCK       CLEAR     68  65  90 SE3       29.83R
MINOT          MOCLDY    73  66  78 S3        29.77R
JAMESTOWN      CLEAR     68  65  90 SE5       29.83R
MINOT AFB      MOCLDY    73  70  90 N3        29.78R
GARRISON         N/A     69  67  93 S6        29.80R
WILLISTON      CLEAR     73  62  68 N12       29.84R
DICKINSON      CLEAR     70  66  87 S9        29.82R
HETTINGER      CLEAR     71  66  84 SE5       29.87R
$$

 *****  OTHER AIRPORT OBSERVATIONS IN OUR AREA  *****

CITY           SKY/WX    TMP DP  RH WIND       PRES   REMARKS
WALHALLA         N/A     68  66  94 CALM        N/A
GRAFTON AIRPOR FAIR      70  66  88 S13G20    29.80S
VALLEY CITY AR FAIR      68  68 100 S8        29.84S
CANDO          FAIR      66  64  94 S8        29.81R
CAVALIER APRT  FAIR      72  64  78 S6        29.79S
GWINNER        MOCLDY    72  70  94 SE7       29.84S
SHEYENNE NWR     N/A     71  67  88 SE6       29.95S
ROLLA          FAIR      68  66  94 SW9       29.85R
 ***** THE ABOVE OBSERVATIONS ARE NON NWS ARE NOT QUALITY
       CONTROLLED AND MAY MIS-REPORT RAIN FOR SNOW...
$$

  *****  WEATHER ACROSS NORTHERN MINNESOTA  *****

CITY           SKY/WX    TMP DP  RH WIND       PRES   REMARKS
FLAG ISLAND    PTCLDY    72  63  73 SE12      29.85F
WARROAD        MOCLDY    70  63  78 SE10      29.86S
ROSEAU         PTCLDY    70  61  73 SE6       29.85S
HALLOCK        PTCLDY    70  64  83 S9        29.80S
THF RVR FALLS    N/A    N/A N/A N/A MISG        N/A
BAUDETTE       CLOUDY    70  59  68 SE5       29.89S
WASKISH        NOT AVBL
CROOKSTON      PTCLDY    70  63  78 S9        29.84F
$$
  *****  WEATHER ACROSS CENTRAL AND WEST MINNESOTA  *****

CITY           SKY/WX    TMP DP  RH WIND       PRES   REMARKS
FOSSTON        CLOUDY    66  63  88 SE12      29.89S
BEMIDJI        DRIZZLE   67  65  91 S9        29.91F
PARK RAPIDS    LGT RAIN  68  67  96 SE8       29.93R
ELBOW LAKE     CLOUDY    72  66  83 SE12G17   29.87S
WADENA         RAIN      68  66  94 S7        29.92F
DETROIT LAKES  CLOUDY    68  66  94 CALM      29.91R
MOORHEAD       CLOUDY    72  72 100 SE7       29.85S
FERGUS FALLS   NOT AVBL
MORRIS MN      MOCLDY    73  66  78 S10G16    29.88S
STAPLES        RAIN      70  64  83 CALM      29.94R
$$
  *****  WEATHER ELSEWHERE ACROSS MINNESOTA  *****

CITY           SKY/WX    TMP DP  RH WIND       PRES   REMARKS
DULUTH         PTCLDY    61  52  72 SE8       30.00S
INTRNTL FALLS  MOCLDY    64  58  80 SE3       29.91F
ELY            MOCLDY    64  54  68 S5        30.00R
CLOQUET        MOCLDY    59  54  82 E5        30.00R
WHEATON        MOCLDY    72  64  78 SE12      29.86S
BRAINERD       LGT RAIN  74  63  68 S7        29.94S
HIBBING        MOCLDY    68  60  75 SE8       29.96S
ALEXANDRIA     CLOUDY    71  66  84 S10       29.93S
SAINT CLOUD    CLOUDY    77  61  57 S9        29.94S
MINNEAPOLIS    MOCLDY    76  59  55 S14       29.99S
$$

  *****  WEATHER ACROSS SOUTH DAKOTA  *****

CITY           SKY/WX    TMP DP  RH WIND       PRES   REMARKS
SIOUX FALLS    MOCLDY    77  65  66 S22       29.92R
BROOKINGS      NOT AVBL
WATERTOWN      PTCLDY    73  66  78 S14       29.89R
HURON          PTCLDY    79  67  66 S14G23    29.84R
SISSETON         N/A     71  68  90 S12       29.84R
ABERDEEN       MOCLDY    72  67  84 S12       29.82R
MITCHELL       MOCLDY    79  68  69 S15       29.86R
PIERRE         PTCLDY    74  70  87 CALM      29.80R
MOBRIDGE       CLEAR     69  65  86 E5        29.81R
RAPID CITY     MOCLDY    72  62  71 SW6       29.91F
$$

  *****  SOME WEATHER IN NEARBY STATES *****

CITY           SKY/WX    TMP DP  RH WIND       PRES   REMARKS
GLASGOW MT     CLEAR     71  58  63 NE12      29.87R
GREAT FALLS MT CLEAR     76  45  33 N10       29.88R
CHEYENNE WY    CLOUDY    65  57  75 NW12      30.18R
SCOTTSBLUFF NE CLOUDY    69  62  78 NW6       30.02R
OMAHA NE       CLEAR     76  64  66 S21       30.00R
DES MOINES IA  PTCLDY    71  60  68 SE12      30.06S
DAVENPORT IA   CLOUDY    67  60  78 S8        30.14S
CHICAGO IL     PTCLDY    68  47  46 SE6       30.17S
EAU CLAIRE WI  PTCLDY    72  65  78 S9        30.05R
LA CROSSE WI   MOCLDY    73  63  70 S8        30.07R HAZE
$$

  *****  SOME NATIONAL WEATHER *****

CITY           SKY/WX    TMP DP  RH WIND       PRES   REMARKS
LA GUARDIA NY  CLOUDY    75  61  61 S3        30.14R
RALEIGH NC     CLOUDY    71  69  93 CALM      30.11S
ATLANTA GA     MOCLDY    76  69  79 S3        30.11R
NEW ORLEANS LA PTCLDY    80  75  84 CALM      30.12R
OKLAHOMA CITY  PTCLDY    77  68  73 SE8       30.00R
ALBUQUERQUE NM MOCLDY    77  51  40 S10       30.13R
SALT LAKE CITY CLOUDY    72  59  63 S23G32    30.05R
LOS ANGELES CA MOCLDY    68  61  78 W14       29.93S
BOISE ID       CLEAR     87  46  24 CALM      29.83R
SEATTLE WA     CLEAR     77  46  33 N5        29.91S
$$

*** WEATHER ACROSS MANITOBA...SASKATCHEWAN AND ONTARIO ***
                ***ONTARIO***

CITY           SKY/WX    TMP DP  RH WIND       PRES   REMARKS
GERALDTON      CLEAR     59  45  58 SW9       30.03S
THUNDER BAY    PTCLDY    54  50  87 VRB2      30.02S
SIOUX LOOKOUT  MOCLDY    57  54  88 S2        29.93S
TORONTO        PTCLDY    63  50  63 CALM      30.20S
BIG TROUT LK   CLEAR     70  50  49 S7        29.79F
PICKLE LAKE    NOT AVBL
DRYDEN         CLEAR     68  54  60 S8        29.91F
KENORA         MOCLDY    66  57  72 S6        29.89S
$$
                *** MANITOBA***

CITY           SKY/WX    TMP DP  RH WIND       PRES   REMARKS
BRANDON        MOCLDY    72  66  83 W15       29.77R
DAUPHIN        CLOUDY    70  66  88 W10       29.74R
ISLAND LAKE    LGT RAIN  68  63  83 SW3       29.68S
PILOT MOUND      N/A     64  63  94 S6          N/A
THE PAS        PTCLDY    66  48  52 SW3       29.65R
THOMPSON       NOT AVBL
WINNIPEG       PTCLDY    72  61  68 S12       29.78F
LYNN LAKE      LGT RAIN  55  54  94 W5        29.54R
CHURCHILL      LGT RAIN  48  46  93 SE21G29   29.64F
GILLAM         TSTM      64  63  94 SE14G21   29.51F
$$
                ***SASKATCHEWAN***

CITY           SKY/WX    TMP DP  RH WIND       PRES   REMARKS
ESTEVAN        PTCLDY    66  61  82 N5        29.85R
KINDERSLEY     PTCLDY    63  48  59 NW10G17   29.95R
LLOYDMINSTER   CLEAR     54  50  87 W16G23    29.89R
PRINCE ALBERT  PTCLDY    63  46  55 W16G28    29.76R
REGINA         PTCLDY    64  55  72 NW2       29.88R
YORKTON        CLEAR     66  55  68 SW7       29.83R
N. BATTLEFORD  CLEAR     59  48  67 W12       29.88R
LA RONGE       MOCLDY    63  50  63 SW12G22   29.65R
SASKATOON      PTCLDY    63  50  63 W12       29.86R
SWIFT CURRENT  CLEAR     64  52  63 E2        29.93R
$$
NOTE: THESE ARE AUTOMATED STATIONS WITH LIMITED QUALITY CONTROL
      "FAIR" INDICATES FEW OR NO CLOUDS BELOW 12,000 FEET WITH NO
      SIGNIFICANT WEATHER AND/OR OBSTRUCTIONS TO VISIBILITY.
      SKY/WX - SKY CONDITION AND SIGNIFICANT WEATHER.
      TMP - AIR TEMPERATURE.    DP   - DEWPOINT TEMPERATURE.
      RH  - RELATIVE HUMIDITY.  PRES - PRESSURE.
      HX  - HEAT INDEX.         WCI  - WIND CHILL INDEX.
$


USA.gov is the U.S. government's official web portal to all federal, state and local government web resources and services.